Index of /sfx/voiceover/
../
mega/ 18-Apr-2026 16:24 -
reversed/ 18-Apr-2026 16:24 -
48 hr energy 6.wav 18-Apr-2026 13:44 248K
___-2.wav 18-Apr-2026 13:44 243K
___-3.wav 18-Apr-2026 13:44 436K
___.wav 18-Apr-2026 13:44 208K
addicted_01.wav 18-Apr-2026 13:44 86K
algiz 3.wav 18-Apr-2026 13:44 114K
amnesia 2.wav 18-Apr-2026 13:44 81K
ancient recall.wav 18-Apr-2026 13:46 360K
ansuz 1.wav 18-Apr-2026 13:44 85K
bad gas 2.wav 18-Apr-2026 13:44 248K
bad trip 1.wav 18-Apr-2026 13:44 110K
balls of steel 4.wav 18-Apr-2026 13:44 141K
berkano 3.wav 18-Apr-2026 13:44 101K
black rune 2.wav 18-Apr-2026 13:46 143K
bombs are key 1.wav 18-Apr-2026 13:44 168K
card against humanity 3.wav 18-Apr-2026 13:44 206K
chaos card 2.wav 18-Apr-2026 13:44 116K
clubs 1.wav 18-Apr-2026 13:46 151K
cracked key.wav 18-Apr-2026 13:46 254K
credit card 2.wav 18-Apr-2026 13:44 101K
dagaz 3.wav 18-Apr-2026 13:44 98K
death 3.wav 18-Apr-2026 13:44 57K
diamonds 1.wav 18-Apr-2026 13:46 140K
dice shard_04.wav 18-Apr-2026 13:44 149K
drowsy 1.wav 18-Apr-2026 13:46 128K
ehwaz 1.wav 18-Apr-2026 13:44 84K
emergency_03.wav 18-Apr-2026 13:44 156K
era walk.wav 18-Apr-2026 13:46 254K
excited 1.wav 18-Apr-2026 13:46 125K
experimental pill_1.wav 18-Apr-2026 13:46 338K
explosive diahhrea 2.wav 18-Apr-2026 13:44 304K
friends 1.wav 18-Apr-2026 13:46 170K
full health 1.wav 18-Apr-2026 13:44 89K
gulp 1.wav 18-Apr-2026 13:46 78K
hagalaz 3.wav 18-Apr-2026 13:44 94K
health down 2.wav 18-Apr-2026 13:44 131K
health up 1.wav 18-Apr-2026 13:44 121K
hearts 1.wav 18-Apr-2026 13:46 133K
hematemisis 1.wav 18-Apr-2026 13:44 112K
holy card 2.wav 18-Apr-2026 13:46 126K
horf 2.wav 18-Apr-2026 13:46 59K
huge growth.wav 18-Apr-2026 13:46 329K
i found pills 3.wav 18-Apr-2026 13:44 157K
infested!_02.wav 18-Apr-2026 13:44 142K
infested_08.wav 18-Apr-2026 13:44 109K
jail card_04.wav 18-Apr-2026 13:44 156K
jera 2.wav 18-Apr-2026 13:44 66K
joker 3.wav 18-Apr-2026 13:44 55K
judgement 3.wav 18-Apr-2026 13:44 79K
justice 3.wav 18-Apr-2026 13:44 76K
larger_03.wav 18-Apr-2026 13:44 158K
lemon party 1.wav 18-Apr-2026 13:44 97K
luck down 2.wav 18-Apr-2026 13:44 131K
luck up 1.wav 18-Apr-2026 13:44 121K
paralysis 3.wav 18-Apr-2026 13:44 169K
percs1.wav 18-Apr-2026 13:44 65K
perthro 1.wav 18-Apr-2026 13:44 70K
pheromones 2.wav 18-Apr-2026 13:44 135K
power pill_09.wav 18-Apr-2026 13:44 114K
pretty fly 5.wav 18-Apr-2026 13:44 197K
puberty 1.wav 18-Apr-2026 13:44 75K
q mark_05.wav 18-Apr-2026 13:44 99K
queen of hearts.wav 18-Apr-2026 13:46 276K
r u a wiz 2.wav 18-Apr-2026 13:44 155K
range down 2.wav 18-Apr-2026 13:44 113K
range up 1.wav 18-Apr-2026 13:44 104K
relax 1.wav 18-Apr-2026 13:44 152K
retro_05.wav 18-Apr-2026 13:44 162K
rules card 1.wav 18-Apr-2026 13:44 111K
rune shard.wav 18-Apr-2026 13:46 393K
see 4ever 1.wav 18-Apr-2026 13:44 226K
see 4ever 2.wav 18-Apr-2026 13:44 225K
shot speed down_2.wav 18-Apr-2026 13:46 284K
shot speed up_1.wav 18-Apr-2026 13:46 279K
small_05.wav 18-Apr-2026 13:44 154K
soul of .wav 18-Apr-2026 13:46 311K
soul of apollyon_3.wav 18-Apr-2026 13:46 353K
soul of azazel_2.wav 18-Apr-2026 13:46 312K
soul of bethany_1.wav 18-Apr-2026 13:46 313K
soul of cain.wav 18-Apr-2026 13:46 363K
soul of eden.wav 18-Apr-2026 13:46 334K
soul of eve.wav 18-Apr-2026 13:46 329K
soul of isaac.wav 18-Apr-2026 13:46 368K
soul of jacob and esau.wav 18-Apr-2026 13:46 479K
soul of judas.wav 18-Apr-2026 13:46 353K
soul of lazarus.wav 18-Apr-2026 13:46 353K
soul of lillith.wav 18-Apr-2026 13:46 474K
soul of magdalene_1.wav 18-Apr-2026 13:46 485K
soul of samson_1.wav 18-Apr-2026 13:46 434K
soul of the forgotten.wav 18-Apr-2026 13:46 415K
soul of the keeper.wav 18-Apr-2026 13:46 441K
soul of the lost.wav 18-Apr-2026 13:46 393K
spades 2.wav 18-Apr-2026 13:46 149K
speed down 2.wav 18-Apr-2026 13:44 145K
speed up 2.wav 18-Apr-2026 13:44 116K
strength 1.wav 18-Apr-2026 13:44 87K
suicide king 3.wav 18-Apr-2026 13:44 143K
sunshine 1.wav 18-Apr-2026 13:46 240K
tears down 5.wav 18-Apr-2026 13:44 117K
tears up 2.wav 18-Apr-2026 13:44 87K
telepills 4.wav 18-Apr-2026 13:44 171K
temperance 2.wav 18-Apr-2026 13:44 95K
the chariot 3.wav 18-Apr-2026 13:44 104K
the devil 2.wav 18-Apr-2026 13:44 81K
the emporer 1.wav 18-Apr-2026 13:44 79K
the empress 1.wav 18-Apr-2026 13:44 106K
the fool 2.wav 18-Apr-2026 13:44 83K
the hanged man 1.wav 18-Apr-2026 13:44 140K
the hermit 1.wav 18-Apr-2026 13:44 73K
the hierophant 1.wav 18-Apr-2026 13:44 104K
the high priestess 3.wav 18-Apr-2026 13:44 157K
the lovers 1.wav 18-Apr-2026 13:44 97K
the magician 2.wav 18-Apr-2026 13:44 90K
the moon 3.wav 18-Apr-2026 13:44 95K
the stars 1.wav 18-Apr-2026 13:44 102K
the sun 3.wav 18-Apr-2026 13:44 84K
the tower 3.wav 18-Apr-2026 13:44 92K
the world 1.wav 18-Apr-2026 13:44 76K
two of clubs 2.wav 18-Apr-2026 13:44 135K
two of diamonds 2.wav 18-Apr-2026 13:44 141K
two of hearts 1.wav 18-Apr-2026 13:44 148K
two of spades 1.wav 18-Apr-2026 13:44 146K
vurp 1.wav 18-Apr-2026 13:46 87K
wheel of fortune 1.wav 18-Apr-2026 13:44 149K
wild card_1.wav 18-Apr-2026 13:46 266K
wrong 1.wav 18-Apr-2026 13:46 114K
x lax 2.wav 18-Apr-2026 13:46 118K